Capo Mele, Italy

3:59 AM CEST on March 30, 2017 (GMT +0200)
Capo Mele

Weather History for LIMU - December, 2012

Change the Weather History Date:

Saturday, December 29, 2012

  Actual Average Record
Temperature  
Mean Temperature 52 °F -  
Max Temperature 57 °F 51 °F 60 °F (2002)
Min Temperature 48 °F 43 °F 28 °F (1996)
Degree Days  
Heating Degree Days 12    
Growing Degree Days 2 (Base 50)    
Moisture  
Dew Point 29 °F    
Average Humidity 43    
Maximum Humidity 71    
Minimum Humidity 11    
Precipitation  
Precipitation 0.00 in 0.09 in - ()
Sea Level Pressure  
Sea Level Pressure 30.29 in    
Wind  
Wind Speed 6 mph ()    
Max Wind Speed 13 mph    
Max Gust Speed -    
Visibility 12.0 miles    
Events      
Averages and records for this station are not official NWS values.
T = Trace of Precipitation, MM = Missing Value Source: Averaged Metar Reports

Daily Weather History Graph

Daily Weather History Graph

Search for Another Location

Airport or City:

Trip Planner

Search our weather history database for the weather conditions in past years. The results will help you decide how hot, cold, wet, or windy it might be!

Date:

Astronomy

Dec. 29, 2012 Rise Set
Actual Time 8:01 AM CET 4:57 PM CET
Civil Twilight 7:28 AM CET 5:30 PM CET
Nautical Twilight 6:52 AM CET 6:07 PM CET
Astronomical Twilight 6:17 AM CET 6:42 PM CET
Moon 6:18 PM CET (12/29) 8:22 AM CET (12/29)
Length of Visible Light 10h 02m
Length of Day
8h 56m
Full, 99% of the Moon is Illuminated
Dec 29
Full
Jan 5
Last Quarter
Jan 11
New
Jan 19
First Quarter
Jan 27
Full

Hourly Weather History & Observations

Time (CET) Temp. Dew Point Humidity Pressure Visibility Wind Dir Wind Speed Gust Speed Precip Events Conditions
1:00 AM 52 °F 14 °F 11% 30.34 in 31 mi NNE 5.8 mph - -  
2:55 AM 51.8 °F 17.6 °F 26% 30.33 in - NNE 8.1 mph - N/A   Clear
3:55 AM 51.8 °F 17.6 °F 26% 30.33 in - NNE 6.9 mph - N/A   Clear
4:55 AM 50.0 °F 17.6 °F 28% 30.33 in - NNE 9.2 mph - N/A   Clear
5:55 AM 50.0 °F 17.6 °F 28% 30.30 in - NNE 9.2 mph - N/A   Clear
6:55 AM 50.0 °F 24.8 °F 37% 30.33 in - NNE 10.4 mph - N/A   Clear
7:00 AM 50 °F 24 °F 23% 30.35 in 12 mi NNE 10.4 mph - -   Clear
7:55 AM 50.0 °F 24.8 °F 37% 30.33 in - NNE 8.1 mph - N/A   Clear
8:55 AM 50.0 °F 26.6 °F 40% 30.33 in - NE 9.2 mph - N/A   Clear
9:55 AM 53.6 °F 30.2 °F 41% 30.33 in - NNE 9.2 mph - N/A   Clear
10:55 AM 55.4 °F 30.2 °F 38% 30.36 in - NNE 8.1 mph - N/A   Clear
11:55 AM 55.4 °F 32.0 °F 41% 30.33 in - NE 8.1 mph - N/A   Clear
12:55 PM 55.4 °F 35.6 °F 47% 30.33 in - NNE 8.1 mph - N/A   Clear
1:00 PM 55 °F 36 °F 37% 30.35 in 31 mi NNE 8.1 mph - -   Clear
1:55 PM 53.6 °F 39.2 °F 58% 30.30 in - NE 9.2 mph - N/A   Clear
2:55 PM 53.6 °F 33.8 °F 47% 30.27 in - ENE 12.7 mph - N/A   Clear
3:55 PM 53.6 °F 33.8 °F 47% 30.27 in - NE 8.1 mph - N/A   Clear
4:55 PM 51.8 °F 35.6 °F 54% 30.24 in - ESE 2.3 mph - N/A   Clear
5:55 PM 48.2 °F 39.2 °F 71% 30.24 in - West 2.3 mph - N/A   Clear
6:55 PM 48.2 °F 35.6 °F 62% 30.21 in - North 2.3 mph - N/A   Clear
7:00 PM 48 °F 36 °F 52% 30.25 in 12 mi North 2.3 mph - -  
7:55 PM 48.2 °F 30.2 °F 50% 30.21 in - NNE 2.3 mph - N/A   Clear
8:55 PM 48.2 °F 30.2 °F 50% 30.21 in - WNW 2.3 mph - N/A   Clear
9:55 PM 48.2 °F 32.0 °F 54% 30.21 in - SSW 2.3 mph - N/A   Clear
10:55 PM 48.2 °F 32.0 °F 54% 30.21 in - SW 4.6 mph - N/A   Clear
11:55 PM 48.2 °F 32.0 °F 54% 30.21 in - WSW 8.1 mph - N/A   Clear